Theta_e
305 306 306 307 307 308 309 310 310 310 310 310 310 309 308 308 309 310 310 310 311 312 316 318 323 325 323
305 306 305 306 306 307 309 309 310 311 311 311 310 310 310 309 310 311 312 310 310 310 313 318 321 323 324
304 304 305 306 306 306 307 308 308 309 311 311 311 311 311 311 311 311 312 312 311 312 313 314 324 325 322
302 303 304 305 306 306 306 307 307 307 310 312 311 311 311 311 311 312 313 312 312 313 313 313 323 320 320
302 303 303 305 304 305 305 306 306 306 309 311 311 312 312 310 312 311 313 313 314 314 313 320 323 321 322
301 302 302 303 304 306 305 304 305 306 307 307 309 310 311 312 312 312 312 311 316 318 319 318 320 321 321
300 301 301 303 303 303 303 304 304 305 305 307 308 308 309 310 310 314 313 312 314 316 318 318 318 319 319
300 300 301 302 302 302 302 302 303 304 305 306 307 307 308 308 309 310 312 314 314 315 315 317 318 318 318
296 299 299 301 301 301 302 302 302 303 304 305 305 306 307 307 308 309 310 312 313 315 315 315 316 316 316
291 292 296 298 299 299 299 300 300 300 303 304 305 305 305 306 307 308 309 309 309 310 311 312 313 314 313
290 290 290 292 294 297 297 297 298 298 299 300 301 302 303 305 306 306 307 307 307 307 308 308 310 311 312
289 289 289 290 291 293 295 295 295 296 297 297 297 298 298 300 302 304 305 305 306 306 306 307 307 307 308
289 289 288 289 289 290 290 292 294 294 294 295 295 296 296 296 297 299 300 301 302 303 303 304 305 306 306
289 289 288 288 288 288 289 289 290 289 289 291 292 293 294 293 294 295 296 297 298 299 300 300 301 301 302
287 288 288 288 288 288 287 287 287 287 288 288 287 288 291 290 290 290 291 291 291 292 293 294 295 297 297
287 287 287 287 287 287 287 286 286 287 287 287 287 287 288 289 289 289 289 289 289 290 290 291 292 292 293
286 287 287 286 286 286 286 286 286 286 287 287 287 286 287 286 288 287 287 288 288 289 289 290 291 290 290
Wind_Speed
35 32 32 28 23 22 18 20 20 21 23 23 24 29 35 34 35 37 39 41 41 43 44 50 53 50 56
37 38 32 26 26 26 22 21 22 21 24 25 26 30 29 32 33 32 36 37 42 46 36 50 44 45 49
30 28 28 26 26 27 26 25 23 23 21 20 23 24 23 27 30 33 35 37 37 37 41 37 40 42 28
29 30 27 25 24 25 27 26 29 25 17 16 19 21 23 28 31 32 34 37 39 40 36 40 35 24 30
28 26 25 25 26 26 27 29 31 23 21 20 22 20 22 24 25 29 31 28 30 39 35 31 32 25 29
28 30 31 29 29 28 28 29 31 24 23 29 22 24 21 20 18 20 21 23 16 8 17 19 18 19 23
25 24 26 24 24 31 32 31 29 27 27 30 20 21 21 21 23 19 12 18 14 2 3 12 18 20 20
22 24 25 28 29 31 31 31 30 26 24 26 23 21 23 22 19 21 17 8 10 8 2 6 8 11 14
21 23 25 27 27 28 27 26 28 24 21 24 26 25 24 24 21 19 18 17 9 4 2 2 3 7 12
17 19 21 22 23 24 24 23 23 23 18 17 19 18 14 20 18 17 17 16 18 19 13 9 7 9 12
20 20 20 20 21 20 21 20 21 23 21 20 20 19 16 18 20 20 17 15 17 17 16 17 15 16 18
21 20 20 20 21 21 21 20 19 21 19 18 17 17 17 18 17 17 16 16 15 16 18 18 16 16 16
20 19 19 18 18 18 18 18 19 18 17 16 16 17 17 17 16 16 15 15 15 16 17 18 18 19 19
21 20 19 18 16 16 16 14 13 13 14 15 16 16 16 16 17 15 14 12 11 13 15 17 18 19 19
20 19 17 17 15 14 13 11 10 10 10 10 12 12 12 12 14 13 13 13 14 13 14 14 16 18 19
18 17 16 14 13 13 12 11 11 9 9 8 8 9 7 7 7 8 8 7 8 9 11 12 10 13 16
17 15 15 14 13 13 11 11 10 10 10 8 7 7 8 7 8 7 9 8 10 12 12 12 11 9 12
Wind_Direction
286 291 295 303 307 307 296 290 289 294 301 299 305 289 274 276 275 272 271 272 265 262 270 257 247 250 238
285 286 293 301 306 308 302 301 296 300 296 300 301 303 288 274 277 273 279 276 265 270 267 252 261 247 253
286 286 290 298 303 307 311 307 303 297 301 299 301 300 294 285 281 276 284 270 267 272 255 267 246 242 233
281 286 287 293 294 303 304 308 309 311 305 309 309 310 306 299 285 288 287 285 266 268 267 252 236 225 222
290 289 283 283 290 297 296 301 306 317 310 301 308 318 319 317 295 280 283 289 275 264 251 230 229 214 223
280 282 282 284 292 287 291 299 305 309 306 306 311 310 310 308 288 290 299 297 302 203 225 221 231 220 222
279 281 289 285 279 284 289 294 290 296 300 299 306 302 305 306 311 311 304 312 348 56 203 207 223 226 230
277 280 276 278 279 282 286 288 288 290 291 293 298 296 297 301 299 304 318 319 323 342 272 217 205 218 229
279 277 279 278 279 280 279 281 286 287 284 282 289 292 295 294 286 287 299 287 312 269 227 205 219 223 226
294 286 279 282 284 284 282 278 278 284 277 272 277 283 288 289 285 279 279 290 293 288 288 256 226 224 239
301 298 293 290 284 285 284 281 277 273 268 271 275 276 267 262 272 280 284 278 283 288 285 267 255 244 244
300 301 298 295 288 282 279 278 274 276 277 277 275 275 274 271 263 261 266 269 268 268 273 271 264 260 256
296 296 296 297 296 293 287 282 273 272 270 271 272 272 272 272 269 266 266 261 262 265 264 262 263 263 267
294 296 298 297 298 298 298 294 280 264 268 268 269 264 261 265 265 270 271 264 261 262 263 264 264 262 259
289 290 289 291 294 295 299 298 293 288 289 282 286 290 270 263 262 259 258 261 263 263 261 260 257 257 260
282 281 280 279 284 282 286 288 288 282 282 287 302 312 289 262 262 252 245 254 261 259 272 273 263 262 258
276 275 279 278 280 282 275 271 271 275 277 288 296 296 301 290 271 266 257 249 265 269 273 273 269 252 255